sat.trackr.live / text

‹ back to catalog

NISAR

NORAD 65053 · 2025-163A

PAYLOAD ACTIVE UNKNOWN

§ Identity

Operator
Country
IND
Launch date
2025-07-30
Launch site
SRILR
Launch vehicle
Mass (kg)
RCS (m²)

External: N2YO · Heavens-Above · Gunter

§ Orbital elements

Epoch: 2026-05-25T03:16:02.643744Z

Period
99.83 min
Inclination
98.4057°
Eccentricity
0.0001221
Mean motion
14.42504287 rev/d
Perigee alt
749.4 km
Apogee alt
751.1 km
Semi-major
7,128.4 km
B*
5.2842e-5
RAAN
333.1380°
Arg perigee
89.6118°
Mean anomaly
270.5212°
Rev number
4,306

§ Raw data

NISAR1 65053U 25163A   26145.13614171  .00000132  00000+0  52842-4 0  99982 65053  98.4057 333.1380 0001221  89.6118 270.5212 14.42504287 43063

JSON: /api/v1/satellites/65053 · /tle

For live sub-satellite position, see the globe view (requires WebGL).

§ Visibility from observer

Set your observer location to see the next 7 days of passes ≥ 10°. The values pass through the URL so the page stays shareable.

No JS? Fill the form by hand. The geolocation button needs JavaScript.

§ Radio — SatNOGS DB

ModeDescriptionDownlinkUplink
FM S-band telemetry 2.246 GHz

1 transmitter · refreshed weekly from db.satnogs.org